Arcadia, Wisconsin
Current Conditions -  °F | °C
As of 7:34 AM on Friday 19 Dec 2014 (Local Time) from KONA Reporting Station
Overcast Overcast  
Wind Chill: 25°   Ceiling: 9000
Heat Index: 25°   Visibility: 10mi
Dew Point: 19°   Wind: 3mph
Humidity: 80%   Direction: 120°ESE
Pressure: 30.3"   Gusts: NA
Location:  44.25°N, 91.5°W
Report Text: KONA 191334Z AUTO 12003KT 10SM OVC090 M04/M07 A3030 RMK AO2
Loading
Personal Weather Stations






























Interactive Weather Map New forecast layout! Learn more

10-Day Weather Forecast

Advertisements
Track Severe Weather on mobile